GFSMW_925_spd_108.txt.gz
Wind_Speed
3 5 8 10 11 11 13 14 16 13 14 14 20 23 26 30 31 31 31 28 26 29 33 29 28 31 29 26 26 19 18 15 14 10 13 16 15 14 14 16 17 18 16
5 7 11 12 13 15 15 16 16 16 14 14 19 25 26 30 31 30 30 29 29 30 34 36 33 34 26 27 25 25 17 14 18 7 4 2 6 14 16 17 21 21 17
9 11 13 15 16 16 18 19 18 19 17 17 19 22 27 27 26 28 30 35 36 39 41 41 37 34 30 29 28 29 23 15 21 18 7 2 3 2 12 22 21 20 20
10 11 14 18 20 19 19 20 21 21 20 18 18 21 27 29 31 31 33 33 37 37 38 38 37 32 32 29 30 30 24 20 17 19 22 12 5 4 4 11 19 20 20
11 13 14 19 21 22 23 22 23 23 21 21 20 21 26 31 31 30 29 32 33 38 37 39 37 36 34 30 30 30 26 25 20 21 12 19 13 8 5 7 6 15 20
11 12 16 19 20 22 24 25 26 26 24 22 23 23 27 31 32 31 28 29 32 34 36 38 39 38 34 32 33 29 27 26 23 21 21 19 9 11 7 9 7 10 11
12 13 15 17 19 22 25 27 28 29 27 25 25 25 27 29 38 35 29 28 27 29 35 38 37 37 39 36 33 31 28 27 26 24 24 22 22 16 15 16 12 8 10
11 13 15 19 21 23 24 25 27 31 29 29 29 28 28 30 35 35 30 28 27 28 30 35 35 37 37 34 33 28 27 27 26 23 23 21 22 20 18 13 10 3 5
11 14 16 19 22 25 27 27 30 31 31 32 32 32 30 29 36 37 32 27 25 25 27 33 32 32 35 35 33 28 28 23 24 24 24 23 23 21 21 22 21 13 3
13 14 14 18 20 22 24 26 26 28 32 32 31 30 34 30 34 31 30 27 25 24 24 29 33 31 32 35 31 23 21 22 23 23 22 24 21 21 22 23 21 22 19
12 14 14 18 19 21 23 25 26 28 30 29 31 33 32 21 24 24 26 29 26 28 28 30 33 33 35 36 31 28 22 23 22 19 20 21 19 22 23 24 22 22 22
12 13 16 19 20 23 25 27 29 33 32 32 29 27 21 12 8 16 19 22 24 26 28 30 33 32 31 32 30 26 24 23 20 19 19 17 19 24 24 24 24 23 24
12 13 14 16 21 25 29 30 30 30 32 30 26 22 19 17 13 4 14 19 24 26 29 32 30 31 31 30 27 24 22 19 17 16 16 15 17 17 19 21 22 25 28
11 13 14 15 23 26 26 28 29 31 31 28 26 23 23 19 17 14 6 8 12 18 23 27 28 28 26 26 25 24 23 17 14 13 11 12 15 17 19 20 22 25 26
12 13 14 15 23 24 25 27 28 29 31 30 30 27 23 21 23 14 13 11 8 10 14 18 20 23 23 23 24 22 20 17 14 10 9 9 10 13 16 20 25 23 26
11 12 14 18 21 24 24 25 27 29 29 29 31 32 31 29 27 30 27 22 18 15 22 21 23 24 20 24 22 19 21 16 12 10 6 4 3 5 6 9 15 24 24
9 12 14 16 20 22 23 24 25 26 27 29 31 34 27 31 32 34 37 37 36 30 29 23 24 23 20 19 21 22 24 18 12 8 5 3 2 2 2 1 5 2 5
9 10 14 17 20 20 22 23 24 27 28 30 30 33 34 33 30 31 37 37 37 30 35 32 31 31 27 23 23 25 25 21 16 12 9 6 6 3 1 3 9 15 15
9 12 14 15 18 21 22 22 26 28 30 31 32 31 31 32 32 34 34 29 35 39 39 34 40 31 31 24 27 29 28 26 25 21 16 11 10 7 8 10 18 20 23
12 13 14 16 19 22 21 23 26 28 30 29 29 32 33 34 34 33 33 32 37 36 39 38 39 34 36 33 26 24 27 30 28 28 28 26 18 12 12 16 20 24 20
13 12 15 19 21 21 22 23 24 26 25 28 30 34 34 34 32 33 32 32 32 33 34 36 42 39 39 36 29 28 30 26 26 26 27 26 25 25 24 22 22 18 20
14 14 17 19 21 22 22 23 24 21 24 27 31 33 33 32 32 32 33 33 31 31 30 31 31 33 38 34 33 32 32 29 29 25 26 27 27 27 26 27 23 24 25
15 15 17 18 20 22 22 21 20 20 22 26 28 30 32 32 33 33 30 28 28 27 26 26 25 26 27 26 32 30 30 28 26 23 24 27 29 29 30 29 27 28 28
15 15 17 20 21 21 22 21 19 18 20 22 23 24 29 32 32 31 33 32 28 26 25 23 22 22 24 26 22 19 18 19 20 20 24 25 25 24 22 22 23 24 21
15 16 18 19 20 20 22 22 21 19 20 21 20 20 21 22 25 33 31 29 33 29 23 23 25 22 23 23 19 16 14 11 12 11 13 15 16 17 16 17 16 15 14
14 16 17 18 19 20 21 22 22 21 19 19 20 20 18 18 18 17 20 26 26 26 27 25 21 19 19 18 18 17 15 13 11 13 14 15 14 15 13 13 13 13 13

GFSMW_925_spd_111.txt.gz
Wind_Speed
6 3 2 4 7 9 11 12 12 11 11 12 14 19 23 26 27 30 28 28 28 27 30 29 27 29 29 30 29 23 22 22 17 10 11 11 11 13 17 15 15 13 12
5 4 4 7 9 10 12 14 14 14 13 13 14 17 23 22 28 28 29 31 28 29 31 32 31 32 31 30 30 29 21 20 21 11 7 4 7 14 16 15 16 16 14
1 2 5 8 10 12 13 15 16 17 16 17 17 18 21 27 26 27 29 29 32 33 33 34 31 30 31 30 33 31 28 21 21 20 10 3 5 3 14 19 19 17 17
2 5 7 10 12 12 13 15 16 18 19 19 19 19 21 24 26 27 29 30 32 33 35 34 37 32 33 30 32 31 29 23 20 21 24 19 8 6 5 10 18 20 19
5 8 10 14 15 16 16 17 18 18 19 20 20 22 23 24 27 31 30 30 30 34 35 37 35 36 35 33 31 30 31 29 23 24 16 22 16 14 7 6 6 12 14
8 10 12 15 16 17 18 19 19 20 21 21 21 22 26 27 28 29 32 28 30 29 34 35 38 38 34 34 33 34 35 33 28 24 21 20 13 11 12 8 11 10 11
9 10 12 15 19 21 21 22 22 24 24 24 24 25 26 28 31 32 32 33 27 27 30 37 36 37 37 34 35 35 30 28 29 28 24 23 21 18 18 18 13 7 9
10 11 13 16 18 20 21 23 24 27 27 27 27 27 27 28 31 33 35 34 31 32 30 35 36 36 36 35 34 34 34 41 35 27 26 21 21 19 18 14 11 5 6
12 13 14 16 18 20 22 22 23 26 26 27 29 29 28 29 32 35 37 39 38 31 30 33 36 35 34 33 32 31 32 32 31 24 22 22 19 18 16 17 12 10 4
11 13 13 19 20 22 23 24 24 26 28 28 28 28 32 34 35 36 39 42 39 37 30 30 34 34 33 33 34 30 28 24 22 21 25 22 19 18 18 18 17 19 18
10 11 12 18 19 22 24 25 26 28 29 30 33 32 33 32 31 34 38 40 39 36 30 30 31 33 31 37 34 33 28 28 23 21 22 23 20 17 17 18 19 20 21
11 11 13 18 20 22 23 24 25 27 30 32 32 33 31 29 24 25 13 26 33 31 32 26 28 31 33 36 37 34 31 28 24 23 21 20 18 18 18 20 21 21 21
12 13 13 16 21 22 23 24 25 27 32 36 31 29 26 27 27 26 14 19 21 24 28 24 24 29 32 36 37 34 34 33 27 17 20 19 16 19 19 20 20 20 21
11 12 13 15 21 22 22 24 26 28 29 29 29 29 32 28 23 20 17 13 11 7 17 22 27 29 31 31 32 29 26 25 22 22 18 15 15 14 9 7 10 12 16
9 12 13 14 20 22 24 26 27 28 29 26 29 34 32 30 30 24 27 22 19 18 13 12 18 22 26 27 29 29 25 26 25 22 17 13 12 11 12 11 13 13 18
10 12 14 17 19 24 25 25 26 29 28 26 28 30 32 30 28 32 37 35 32 26 22 19 17 13 17 24 22 24 26 27 23 18 13 11 6 3 0 3 5 8 14
10 12 12 16 20 22 22 23 24 24 26 28 31 33 33 36 35 32 41 36 36 39 37 34 28 26 19 16 28 31 31 28 26 17 11 10 8 7 3 1 3 7 7
9 10 14 17 19 19 21 21 22 25 28 31 32 32 31 33 34 36 36 34 34 41 41 38 32 36 32 31 31 33 30 28 24 17 14 11 10 7 6 5 8 12 15
10 11 13 15 16 19 21 21 24 27 29 30 31 33 33 33 35 36 34 33 38 39 39 41 37 36 42 30 33 34 34 34 31 26 17 16 15 13 11 9 13 16 17
10 12 14 15 18 21 20 23 25 28 29 29 30 32 33 34 34 32 33 32 35 34 35 38 37 40 41 41 36 32 29 27 27 29 30 32 22 15 14 16 16 21 16
9 10 13 16 19 20 21 23 25 27 26 29 30 33 34 33 33 33 33 32 32 32 35 37 41 45 45 42 37 35 34 23 23 32 31 29 29 25 23 20 22 20 18
10 10 13 15 18 21 22 22 23 22 23 26 30 32 32 33 33 32 32 33 30 31 31 31 32 35 35 41 38 36 36 30 28 29 31 30 29 29 27 28 24 24 24
10 12 14 16 19 21 22 20 18 20 20 23 25 28 32 31 31 34 33 30 30 29 27 27 27 27 30 29 30 32 34 35 34 29 26 25 27 29 32 30 28 27 28
11 13 15 18 20 21 23 22 20 19 20 22 22 23 24 29 32 29 31 32 31 26 26 26 24 25 28 30 27 24 22 22 22 20 22 23 24 25 24 24 24 24 22
12 14 16 17 19 19 21 22 21 18 19 21 21 22 22 22 21 29 31 28 32 30 26 22 25 22 24 25 23 23 23 20 19 17 20 20 20 20 19 19 19 18 17
11 14 16 16 17 19 20 21 21 21 20 20 20 21 20 20 20 19 17 23 26 27 28 28 24 21 21 20 22 22 20 18 16 18 18 18 19 18 17 15 14 15 15

GFSMW_925_spd_114.txt.gz
Wind_Speed
12 18 14 12 9 8 9 10 8 9 11 12 15 16 14 18 21 27 29 28 30 32 36 33 30 33 35 33 30 22 26 21 20 17 14 10 13 18 19 19 19 19 21
14 13 14 13 11 8 10 11 13 14 14 14 17 19 23 23 26 27 20 36 31 34 36 35 30 30 30 32 30 25 22 21 23 9 12 3 8 20 21 21 22 23 23
16 12 8 12 7 7 10 13 14 15 16 16 17 18 20 21 21 22 26 24 27 32 36 35 35 31 30 29 33 32 27 22 26 24 7 3 4 4 15 25 23 23 24
12 9 8 10 8 12 13 15 16 17 16 18 19 19 19 20 22 27 28 29 26 41 35 38 36 35 30 31 33 33 34 27 23 27 28 13 7 3 2 17 25 25 25
10 9 9 7 9 13 15 16 17 18 19 19 18 19 20 21 24 28 32 32 31 28 39 39 36 35 32 33 34 34 34 35 30 29 24 25 20 14 2 3 8 22 24
10 7 8 11 13 15 16 16 17 19 21 22 21 20 21 23 25 26 28 31 32 31 29 41 41 39 39 35 34 35 35 37 33 29 27 23 17 13 6 3 4 10 19
9 7 10 12 16 17 18 19 20 21 23 24 23 23 24 26 27 27 27 30 33 33 34 33 41 41 39 38 36 36 36 38 35 32 31 24 23 18 19 14 7 4 7
8 9 10 14 17 19 22 22 23 25 27 26 26 25 25 25 27 28 29 31 34 35 34 31 38 38 37 42 37 36 35 37 37 34 31 29 27 26 24 22 14 3 3
9 10 12 16 18 20 22 23 24 25 27 28 28 28 29 28 29 31 32 34 36 39 39 38 32 35 37 42 40 39 37 33 37 31 32 27 29 30 30 24 22 9 4
12 12 11 16 18 20 20 21 22 23 26 28 28 29 31 30 30 31 34 34 38 40 40 40 34 37 36 38 39 38 38 36 31 35 29 32 26 22 30 22 16 16 10
12 12 12 17 20 21 22 22 23 25 27 27 29 30 29 29 28 29 30 33 37 44 42 41 38 38 36 37 36 36 34 36 33 31 32 29 18 29 23 19 21 23 23
11 11 13 18 20 22 23 22 24 26 27 29 28 29 28 28 26 26 28 30 36 32 40 39 39 40 41 38 37 36 32 34 33 27 28 30 38 32 26 24 26 23 20
11 11 13 16 18 21 22 23 25 28 30 30 28 28 29 31 27 26 28 26 25 22 16 32 35 37 36 35 34 36 33 33 32 33 33 30 31 28 25 25 22 21 17
11 12 12 15 19 21 22 24 25 27 30 29 27 28 30 31 28 25 26 24 26 20 14 15 30 35 34 30 33 30 29 29 30 29 28 26 26 25 22 16 11 8 5
12 11 12 12 18 21 22 23 24 28 30 27 27 28 29 30 31 28 30 31 34 31 22 23 21 9 7 12 24 30 28 29 24 25 25 23 22 21 19 14 8 4 5
10 10 12 17 19 21 21 22 25 27 27 25 27 28 32 32 32 32 34 32 39 43 40 43 36 33 28 7 25 29 24 30 34 29 25 21 18 15 12 10 3 3 3
9 11 11 14 17 20 22 23 25 26 25 24 29 30 29 31 34 34 36 38 35 43 41 41 40 40 40 33 25 26 31 29 25 27 23 19 16 13 12 14 10 9 8
9 9 12 13 18 21 23 22 23 25 26 28 30 31 31 30 33 36 37 37 40 42 35 42 42 43 42 40 39 35 32 33 29 24 17 19 17 14 14 15 15 14 13
10 11 13 16 19 22 21 20 22 25 29 30 31 32 32 34 34 35 35 37 39 41 43 42 46 47 45 42 38 41 30 46 41 35 24 19 19 13 17 20 20 19 16
10 13 16 19 21 20 18 19 22 26 28 29 29 32 34 34 34 35 33 33 35 37 37 43 49 47 45 45 41 46 30 37 36 40 36 31 25 18 16 19 21 24 16
8 9 12 15 13 15 17 19 22 24 22 27 29 31 32 33 33 32 36 33 33 34 36 38 40 38 41 45 44 43 39 35 33 32 34 31 35 28 26 23 25 23 21
9 11 11 12 15 17 17 17 20 20 22 23 29 35 32 30 34 33 32 32 32 32 33 32 33 37 38 38 39 43 41 35 34 30 30 34 36 32 29 30 27 25 27
9 12 12 14 16 20 20 20 20 23 22 23 24 25 33 36 31 34 33 32 30 31 29 29 30 31 34 37 35 34 32 32 32 31 30 30 32 30 30 29 30 29 30
10 12 13 15 17 19 21 22 22 19 22 23 23 24 21 27 34 30 31 32 31 27 26 27 26 26 30 34 35 33 30 27 25 24 25 24 27 28 28 31 31 30 25
12 13 13 14 16 17 21 22 23 21 20 21 22 22 22 23 20 29 27 28 32 31 27 24 25 25 26 27 26 26 26 24 21 21 24 24 24 24 25 26 25 22 22
11 13 14 15 16 19 21 22 22 21 21 20 20 21 20 21 21 18 17 22 26 29 29 28 28 25 25 24 22 25 24 22 19 21 21 21 21 21 20 20 19 21 20

GFSMW_925_spd_117.txt.gz
Wind_Speed
13 23 26 25 26 24 24 24 23 21 19 24 25 26 26 24 19 20 16 18 28 36 38 38 38 39 41 42 27 32 34 32 30 25 16 20 22 22 22 21 22 23 25
15 17 22 24 25 24 21 21 20 20 21 20 20 21 23 15 24 21 18 15 20 24 36 37 39 42 38 41 42 33 26 27 31 16 12 3 5 18 21 23 25 24 26
18 16 15 24 27 26 23 21 21 19 19 22 21 21 22 23 23 27 27 24 24 23 18 37 39 41 35 31 41 38 33 25 31 29 12 3 5 3 15 28 27 28 28
15 16 12 21 24 24 23 23 19 18 19 21 23 23 16 17 23 30 35 36 35 34 30 25 30 42 39 37 32 36 35 30 22 24 31 11 10 4 1 9 27 29 29
13 15 13 22 27 25 24 22 19 19 21 23 22 23 22 21 22 23 29 36 38 38 38 33 27 30 40 38 37 43 38 37 27 26 26 23 16 9 3 3 5 25 29
16 14 22 24 27 26 25 21 21 21 24 24 22 20 22 25 26 28 28 27 31 39 38 34 35 30 36 39 39 39 36 32 30 26 25 28 23 20 5 2 3 8 19
15 13 13 16 22 26 24 19 21 20 22 22 20 20 20 23 25 24 26 30 31 31 36 33 29 31 29 37 37 37 37 35 34 31 28 28 29 26 23 13 4 3 13
13 13 12 21 22 21 21 21 22 22 23 24 23 21 21 22 24 24 25 29 31 34 36 37 36 36 36 32 39 37 36 34 37 35 32 28 29 29 29 24 9 1 4
14 17 18 20 19 19 20 22 23 22 24 26 26 25 23 23 26 28 29 30 32 35 36 37 38 35 38 34 38 37 35 34 35 35 36 35 31 31 33 29 27 14 5
12 10 10 14 16 18 18 21 22 23 26 27 27 28 29 29 29 30 30 31 34 35 39 39 38 38 35 39 38 38 37 36 34 35 34 35 33 35 33 31 27 20 13
10 9 11 15 17 18 21 22 23 25 27 26 29 29 29 30 30 30 30 30 32 31 35 37 38 39 38 40 37 39 35 37 36 36 34 36 37 37 35 33 26 28 25
12 11 14 18 20 22 24 25 26 25 26 26 27 27 26 27 26 26 28 29 30 29 28 30 37 43 38 37 38 40 37 40 37 37 37 39 40 40 41 34 32 26 27
14 12 14 17 20 23 24 24 26 26 25 27 27 26 26 26 26 26 26 25 26 24 21 22 23 30 34 35 39 39 37 37 39 40 39 39 34 36 30 27 23 26 27
13 12 11 15 19 21 22 23 24 25 25 26 26 26 28 28 27 26 27 27 27 25 23 18 16 8 12 25 35 41 41 40 40 37 42 35 32 36 32 28 27 28 25
12 11 12 13 18 19 21 23 22 25 27 28 28 30 29 28 27 26 26 27 27 28 32 32 27 14 13 6 18 28 36 35 29 25 26 30 30 32 33 34 30 26 21
11 12 12 16 18 20 20 19 23 27 29 28 30 32 29 26 25 28 33 34 35 30 36 42 29 30 33 22 2 9 19 17 20 25 26 26 31 35 36 33 28 24 24
11 9 10 13 15 17 20 23 25 29 28 30 32 30 28 26 29 31 32 33 32 32 36 40 35 42 42 49 39 24 33 37 27 21 18 24 26 27 28 26 24 19 14
9 6 11 14 16 19 21 23 27 27 28 30 30 33 31 30 33 33 33 34 34 35 39 43 42 43 50 50 50 42 44 46 40 32 24 20 22 18 24 24 23 20 17
9 11 15 15 17 20 20 22 26 25 28 29 30 30 33 31 32 34 33 32 34 37 40 41 48 50 53 52 46 47 43 43 44 43 32 25 25 16 16 24 28 25 22
12 13 14 14 15 17 17 21 19 20 26 29 28 27 29 32 33 30 33 31 33 36 38 43 47 47 52 51 48 39 43 36 33 43 37 36 34 27 20 25 25 23 18
11 13 13 14 14 15 20 21 21 22 21 25 33 35 31 31 32 30 31 33 31 34 36 39 42 46 47 49 49 43 40 33 33 34 33 35 31 39 35 31 30 23 24
10 9 11 14 19 22 22 18 23 22 23 21 25 35 36 32 35 33 33 31 33 33 34 35 37 40 42 41 40 40 39 35 32 28 31 32 34 35 35 36 30 32 31
11 12 13 16 19 21 20 22 19 21 23 25 25 26 34 34 31 36 34 33 32 30 30 31 31 32 35 38 37 34 34 34 34 30 31 31 32 35 34 33 33 31 27
12 14 15 16 17 17 19 21 22 20 22 23 25 24 23 30 32 30 31 32 32 31 29 28 27 27 30 33 31 30 31 30 30 30 32 32 33 33 33 33 32 30 26
14 14 15 15 16 17 22 23 23 22 22 24 25 24 25 22 25 27 28 30 33 32 28 28 27 28 29 29 29 28 28 27 25 25 29 30 29 28 27 27 28 27 24
16 17 16 16 14 17 20 25 23 24 24 21 22 25 23 25 23 19 21 25 27 27 27 29 30 30 28 26 26 29 28 27 26 30 27 25 24 23 22 21 21 24 24

GFSMW_925_spd_123.txt.gz
Wind_Speed
11 21 22 22 25 27 25 23 20 19 16 16 14 10 14 10 12 10 10 10 10 12 13 7 16 22 46 35 33 33 31 28 27 17 18 25 30 35 36 36 35 32 30
10 14 20 26 29 27 29 27 24 22 21 17 14 7 11 6 11 9 14 13 16 15 14 12 11 14 29 36 45 36 25 21 22 14 1 5 11 27 31 34 36 34 31
13 13 19 22 27 30 29 28 26 22 24 19 17 15 9 14 11 22 21 21 20 18 17 13 13 15 14 22 22 19 29 16 16 25 11 2 4 1 11 34 36 36 34
14 13 16 20 22 22 27 29 27 28 25 25 23 22 16 11 15 24 27 26 23 20 17 17 17 18 19 18 18 20 25 30 24 20 24 37 13 2 5 15 28 32 36
12 11 12 15 18 23 24 26 27 29 30 29 27 23 20 17 20 24 27 27 26 23 22 18 18 19 20 20 19 21 23 25 33 31 23 29 23 26 9 10 8 18 29
12 13 14 14 15 20 25 25 29 28 32 30 27 23 22 24 22 23 22 23 24 28 25 23 24 23 22 21 21 20 23 20 29 30 32 25 21 20 13 10 12 13 15
7 9 10 16 19 20 24 27 28 28 30 26 23 25 25 22 17 18 19 22 23 22 24 27 28 23 20 20 21 25 27 29 23 30 31 35 34 25 32 24 12 8 17
6 8 12 14 21 24 21 23 22 20 22 23 26 24 21 19 19 17 20 22 22 24 25 25 26 27 26 26 24 23 24 25 30 29 36 34 35 33 31 28 17 5 4
4 3 6 10 13 17 21 25 24 22 22 24 22 21 22 21 21 21 20 21 22 23 24 26 24 25 28 28 28 27 27 24 26 33 30 36 32 36 37 34 31 18 9
5 3 5 11 10 12 14 14 15 14 18 20 19 20 21 21 21 21 21 22 22 24 24 24 25 25 24 25 26 28 27 28 27 26 29 35 33 34 36 34 32 30 22
4 5 8 7 7 11 13 13 14 17 22 24 22 20 21 21 22 21 21 22 23 23 22 23 24 26 26 24 25 27 29 31 29 27 28 33 33 32 32 32 31 30 29
5 5 9 12 14 17 17 19 21 22 24 22 22 21 23 25 23 23 24 25 24 24 22 21 23 23 22 22 24 28 28 28 29 30 29 36 33 35 33 33 32 30 30
5 4 4 11 14 16 18 20 20 20 19 19 19 22 23 26 25 26 27 27 28 27 27 25 25 26 24 24 23 26 30 33 36 34 31 36 37 33 31 33 28 28 27
5 5 7 10 13 14 15 15 18 20 19 20 20 19 24 26 29 29 30 31 31 31 30 29 29 30 29 27 27 27 30 32 33 34 32 34 37 33 32 29 30 28 24
5 5 6 8 11 12 14 16 19 20 18 16 19 27 29 29 29 31 33 34 34 33 33 33 32 33 28 31 33 24 28 31 26 21 19 24 28 34 38 32 29 27 24
5 5 6 9 7 8 9 13 13 13 14 19 24 27 30 32 32 33 31 31 33 35 38 40 34 35 34 36 34 26 17 22 21 11 8 3 5 8 28 35 32 28 26
5 4 4 3 4 6 9 12 17 17 21 26 24 25 30 31 32 33 37 37 37 38 40 40 37 37 44 41 35 37 34 30 35 31 26 23 15 10 10 17 19 23 28
6 4 2 1 4 8 11 14 17 22 24 27 24 29 31 31 34 35 35 36 37 37 36 38 40 40 48 48 40 35 36 35 43 43 36 32 28 19 14 16 21 22 20
6 5 2 5 9 12 14 17 18 24 25 23 27 27 29 32 34 34 33 32 32 34 34 35 40 42 47 53 45 34 32 36 41 44 47 39 36 26 23 25 25 29 28
6 7 11 13 16 14 16 18 19 19 21 26 24 25 30 34 33 30 29 32 32 30 28 31 36 36 41 48 47 40 33 36 35 41 41 44 43 39 36 36 23 24 26
11 11 13 15 14 15 16 18 18 19 20 25 26 31 31 30 30 27 30 32 31 29 30 31 34 37 40 41 43 43 41 35 37 34 35 38 40 38 38 35 31 30 26
11 10 11 12 12 14 16 17 18 16 18 20 27 30 30 29 29 27 27 29 30 28 29 31 32 37 39 40 39 40 38 34 33 32 32 34 35 37 39 43 39 34 31
12 10 9 9 12 12 13 16 16 16 20 22 20 24 26 24 26 28 26 27 27 30 28 28 29 31 34 37 37 36 35 36 34 31 29 31 33 34 39 37 40 39 32
12 11 10 10 10 11 12 13 16 18 21 20 17 17 19 23 24 26 26 28 29 27 28 28 29 28 33 37 38 37 36 37 35 34 35 38 39 42 40 42 40 36 35
11 10 9 10 9 13 16 16 16 17 17 17 16 18 21 20 22 27 28 27 30 30 28 28 28 31 31 33 31 34 34 31 30 30 34 37 36 35 35 34 36 35 34
11 10 10 11 12 13 17 18 19 17 15 14 17 19 19 20 22 22 24 24 24 27 28 29 31 29 30 29 28 29 32 32 27 34 32 30 30 30 29 29 29 32 32